Probability
0 0 0 0 0 0 0 0 0 0 0 0 0 0 0 0 0 0 0 0 0 0 0 0 0 1 2 2 2 1 0 0 0 0 0 0 0 0
0 0 0 0 0 0 0 0 0 0 0 0 0 0 0 0 0 0 0 0 0 0 0 0 0 0 1 1 1 0 0 0 0 0 0 0 0 0
0 0 0 0 0 0 0 0 0 0 0 0 0 0 0 0 0 0 0 0 0 0 0 0 0 0 0 0 0 0 0 0 0 0 0 0 0 0
0 0 0 0 0 0 0 0 0 0 0 0 0 0 0 0 0 0 0 0 0 0 0 0 0 0 0 0 0 0 0 0 0 0 0 0 0 0
0 0 0 0 0 0 0 0 0 0 0 0 0 0 0 0 0 0 0 0 0 0 0 0 0 0 0 0 0 0 0 0 0 0 0 0 0 0
0 0 0 0 0 0 0 0 0 0 0 0 0 0 0 0 0 0 0 0 0 0 0 0 0 0 0 0 0 0 0 0 0 0 0 0 0 0
0 0 0 0 0 0 0 0 0 0 0 0 0 0 0 0 0 0 0 0 0 0 0 0 0 0 0 0 0 0 0 0 0 0 0 0 0 0
0 0 0 0 0 0 0 0 0 0 0 0 0 0 0 0 0 0 0 0 0 0 0 0 0 0 0 0 0 0 0 0 0 0 0 0 0 0
0 0 0 0 0 0 0 0 0 0 0 0 0 0 0 0 0 0 0 0 0 0 0 0 0 0 0 0 0 0 0 0 0 0 0 0 0 0
0 0 0 0 0 0 0 0 0 0 0 0 0 0 0 0 0 0 0 0 0 0 0 0 0 0 0 0 0 0 0 0 0 0 0 0 0 0
0 0 0 0 0 0 0 0 0 0 0 0 0 0 0 0 0 0 0 0 0 0 0 0 0 0 0 0 0 0 0 0 0 0 0 0 0 0
0 0 0 0 0 0 0 0 0 0 0 0 0 0 0 0 0 0 0 0 0 0 0 0 0 0 0 0 0 0 0 0 0 0 0 0 0 0
0 0 0 0 0 0 0 0 0 0 0 0 0 0 0 0 0 0 0 0 0 0 0 0 0 0 0 0 0 0 0 0 0 0 0 0 0 0
0 0 0 0 0 0 0 0 0 0 0 0 0 0 0 0 0 0 0 0 0 0 0 0 0 0 0 0 0 0 0 0 0 0 0 0 0 0
0 0 0 0 0 0 0 0 0 0 0 0 0 0 0 0 0 0 0 0 0 0 0 0 0 0 0 0 0 0 0 0 0 0 0 0 0 0
0 0 0 0 0 0 0 0 0 0 0 0 0 0 0 0 0 0 0 0 0 0 0 0 0 0 0 0 0 0 0 0 0 0 0 0 0 0
0 0 0 0 0 0 0 0 0 0 0 0 0 0 0 0 0 0 0 0 0 0 0 0 0 0 0 0 0 0 0 0 0 0 0 0 0 0
0 0 0 0 0 0 0 0 0 0 0 0 0 0 0 0 0 0 0 0 0 0 0 0 0 0 0 0 0 0 0 0 0 0 0 0 0 0
0 0 0 0 0 0 0 0 0 0 0 0 0 0 0 0 0 0 0 0 0 0 0 0 0 0 0 0 0 0 0 0 0 0 0 0 0 0
0 0 0 0 0 0 0 0 0 0 0 0 0 0 0 0 0 0 0 0 0 0 0 0 0 0 0 0 0 0 0 0 0 0 0 0 0 0
0 0 0 0 0 0 0 0 0 0 0 0 0 0 0 0 0 0 0 0 0 0 0 0 0 0 0 0 0 0 0 0 0 0 0 0 0 0
0 0 0 0 0 0 0 0 0 0 0 0 0 0 0 0 0 0 0 0 0 0 0 0 0 0 0 0 0 0 0 0 0 0 0 0 0 0
0 0 0 0 0 0 0 0 0 0 0 0 0 0 0 0 0 0 0 0 0 0 0 0 0 0 0 0 0 0 0 0 0 0 0 0 0 0
Wind_Speed
6 6 5 5 4 4 4 4 5 6 6 5 3 3 3 3 4 4 3 5 5 5 4 3 3 3 3 2 2 2 3 4 5 5 5 5 5 4
4 5 5 4 4 4 4 5 5 5 6 3 3 2 3 3 4 3 4 5 5 5 5 4 4 4 3 2 2 3 4 5 5 5 5 4 3 3
4 5 6 5 4 4 4 4 4 4 5 3 1 1 3 4 3 3 3 3 3 5 5 5 5 4 3 2 2 3 4 5 5 5 5 3 2 2
5 5 6 4 5 4 4 5 5 4 4 4 2 2 2 4 4 4 3 2 2 4 6 5 5 4 3 2 2 3 4 4 5 5 4 3 2 1
5 5 5 4 5 4 4 4 3 2 2 2 2 1 1 3 3 3 3 2 2 2 4 4 5 4 3 2 2 3 3 4 4 4 4 3 2 2
5 5 5 5 5 5 4 4 3 2 2 2 2 2 2 3 4 3 3 2 1 1 2 2 3 3 3 2 3 3 3 4 4 4 4 4 3 3
4 4 4 5 5 4 3 3 3 2 2 3 3 2 3 4 4 3 3 2 1 1 1 1 1 2 1 2 3 3 4 4 4 5 6 6 6 6
4 4 3 4 4 4 4 4 3 4 4 4 3 4 4 4 4 4 4 3 1 1 2 1 1 1 1 1 1 3 4 5 5 6 7 8 8 8
4 4 3 3 3 3 3 2 2 3 4 5 5 5 5 6 7 6 4 3 2 2 2 1 1 1 1 1 1 2 3 4 5 6 7 8 8 8
4 4 4 3 3 2 2 1 1 1 1 2 3 4 4 6 6 6 6 5 3 2 2 2 1 1 1 1 2 2 3 5 6 6 6 7 8 8
3 3 3 3 3 2 2 2 1 1 2 4 4 5 7 9 9 7 6 5 2 1 1 2 1 1 1 1 3 3 3 4 5 6 6 7 8 8
3 2 3 3 3 2 2 3 2 1 2 3 5 6 6 7 8 5 6 5 3 2 2 2 2 2 1 1 2 2 2 3 5 5 6 6 6 5
2 2 2 3 2 1 2 2 3 3 3 4 4 4 4 4 3 3 3 4 4 2 3 3 2 2 2 1 1 2 2 2 2 3 4 5 6 5
2 2 2 2 2 1 0 2 5 5 3 4 4 3 3 3 3 4 5 4 3 3 4 4 3 3 3 2 1 1 2 2 2 2 2 3 4 5
1 2 1 1 2 2 3 5 4 3 3 3 3 3 2 3 4 4 5 5 6 5 3 2 3 3 3 3 2 1 1 1 1 1 2 2 2 2
2 2 3 4 4 3 3 3 2 2 3 3 3 3 3 3 3 3 3 3 3 3 4 4 3 4 3 2 2 2 1 1 1 1 2 1 1 1
1 2 2 2 2 2 2 2 2 2 3 3 3 3 3 3 2 2 3 2 3 2 2 2 3 4 3 3 2 2 2 1 1 1 2 1 1 1
2 1 1 1 1 1 1 1 1 2 2 2 3 3 3 3 3 2 2 3 3 3 3 2 2 2 2 2 1 2 1 1 1 1 2 2 0 0
1 0 0 0 0 1 1 1 1 1 2 2 2 3 3 3 3 3 3 3 3 3 2 2 2 3 3 1 1 1 3 2 2 1 1 1 1 1
1 1 0 0 0 1 1 1 1 1 2 2 2 2 3 3 3 4 3 4 3 3 2 2 2 3 3 3 2 1 2 3 2 2 1 1 0 1
1 1 1 0 0 0 1 1 1 2 2 2 2 2 2 3 3 3 3 5 4 3 3 3 2 4 3 3 3 1 0 2 4 3 3 2 1 0
2 1 1 0 1 1 1 1 2 2 2 2 2 2 2 2 3 4 4 4 3 3 3 2 3 2 2 2 2 2 2 1 1 3 4 4 4 3
2 1 1 1 1 1 1 2 2 2 2 2 2 2 2 2 2 3 3 3 4 4 4 3 3 2 2 2 3 2 3 2 1 1 0 2 4 3
Wind_Direction
237 239 246 250 243 240 232 217 222 245 247 229 222 215 208 196 204 193 187 185 186 177 160 150 145 136 115 82 36 0 354 345 334 329 323 312 298 294
239 245 250 255 250 245 237 230 228 234 249 230 223 211 193 191 197 181 175 168 169 164 155 149 137 126 107 70 22 5 356 342 334 324 320 313 301 292
243 241 247 248 247 248 243 238 233 230 247 257 229 202 181 177 169 149 145 145 155 160 151 144 141 132 113 72 19 11 356 347 342 333 330 329 343 337
243 246 254 253 248 244 239 245 242 232 230 239 229 181 176 175 155 148 137 126 137 154 146 145 141 131 114 77 34 17 2 353 349 344 346 351 7 17
246 245 251 252 256 256 250 244 246 247 234 212 208 156 148 148 137 125 113 102 98 131 136 144 143 129 110 81 51 22 14 4 355 0 11 20 40 66
258 250 249 245 246 245 245 241 236 229 205 184 174 153 137 138 144 145 130 115 106 95 116 117 127 117 100 71 48 28 26 22 22 33 43 44 52 68
274 260 255 259 260 256 252 240 225 222 202 179 171 158 155 159 167 152 148 121 90 106 101 82 89 83 69 50 41 36 38 44 51 55 60 60 62 67
280 277 270 250 254 269 271 258 239 229 217 194 184 180 176 164 149 148 139 136 169 161 124 97 91 103 53 7 30 54 57 58 65 66 70 68 66 66
272 271 274 271 267 244 256 261 257 255 228 203 191 184 172 171 158 152 151 146 151 144 119 124 89 94 20 352 20 60 74 73 72 74 74 74 70 69
270 261 256 260 255 249 227 228 260 276 219 195 185 179 166 160 159 149 137 114 87 71 104 127 113 83 26 4 4 59 91 85 79 77 77 77 77 75
277 266 254 252 260 255 197 200 219 344 59 106 115 126 138 143 141 128 133 135 129 139 115 127 130 85 48 21 6 35 78 89 84 83 79 79 82 82
301 290 276 267 266 236 199 187 192 201 125 104 97 104 115 133 141 147 150 147 135 156 166 133 132 113 82 4 12 17 39 74 87 84 81 79 86 87
311 311 303 306 296 253 224 195 182 152 133 121 111 104 99 98 93 84 105 140 141 152 159 137 131 117 120 97 9 20 35 43 52 63 72 79 95 101
283 283 301 338 10 31 67 120 122 122 119 118 116 114 114 111 99 88 82 74 75 118 143 134 135 146 133 123 141 33 29 40 56 58 50 66 78 95
315 308 326 62 70 67 83 103 109 114 122 125 126 120 113 117 113 100 85 82 72 65 76 99 125 129 124 140 147 132 100 33 49 76 72 66 62 79
13 33 54 65 70 80 88 85 84 111 121 123 118 110 111 121 123 119 117 108 93 65 50 65 93 120 122 121 137 141 135 143 108 100 98 75 69 92
60 55 53 59 60 55 62 78 86 97 105 114 120 125 131 130 129 121 121 116 119 128 102 66 72 81 94 126 126 138 133 124 150 135 118 96 59 128
84 77 62 68 85 95 91 73 85 104 117 125 134 142 147 149 143 132 124 132 136 141 141 137 121 90 70 37 111 150 136 140 141 133 121 129 147 179
65 78 142 153 149 122 119 113 107 116 125 132 136 142 147 149 148 146 143 137 137 140 144 144 142 139 142 165 343 168 156 149 137 128 145 157 176 197
12 331 290 242 166 153 150 136 129 128 129 132 135 144 149 153 156 160 160 155 149 144 143 143 157 167 173 168 158 145 170 157 152 156 154 131 75 317
341 334 316 279 209 156 150 153 151 150 147 147 151 154 159 161 164 164 161 162 155 152 163 177 189 158 118 101 103 110 97 183 172 162 151 139 132 105
326 320 316 269 207 176 162 161 156 153 155 161 164 163 163 164 163 163 164 163 163 159 158 144 130 128 120 139 150 146 136 100 167 172 172 171 164 181
319 317 315 284 235 182 165 169 172 174 170 166 166 166 162 160 161 163 166 163 155 152 146 145 140 134 144 151 154 154 152 150 139 138 211 223 212 209